This is the latest recevied weather packets stored in our database for station/object AB2HM. If no packets are shown the sender has not sent any weather packets the latest 10 day(s).
| Time | Temp. | Humidity | Pressure | Rain* | Wind** | Luminosity | Snow |
|---|---|---|---|---|---|---|---|
| 1787843205 | 28.89° C | 69% | 1017.6 hPa | 0 mm | - | - | - |
| 1787841394 | 28.33° C | 69% | 1017.7 hPa | 0 mm | - | - | - |
| 1787839591 | 27.78° C | 73% | 1017.8 hPa | 0 mm | - | - | - |
| 1787837790 | 26.67° C | 75% | 1017.8 hPa | 0 mm | - | - | - |
| 1787835970 | 25.56° C | 78% | 1018 hPa | 0 mm | - | - | - |
| 1787834155 | 24.44° C | 79% | 1018 hPa | 0 mm | - | - | - |
| 1787832351 | 23.89° C | 81% | 1018 hPa | 0 mm | - | - | - |
| 1787830543 | 23.33° C | 83% | 1017.9 hPa | 0 mm | - | - | - |
| 1787828740 | 22.78° C | 84% | 1018 hPa | 0 mm | - | - | - |
| 1787826922 | 22.22° C | 84% | 1018.1 hPa | 0 mm | - | - | - |
| 1787825122 | 22.78° C | 83% | 1018.2 hPa | 0 mm | - | - | - |
| 1787823315 | 22.78° C | 82% | 1018.1 hPa | 0 mm | - | - | - |
| 1787821494 | 22.78° C | 82% | 1018.1 hPa | 0 mm | - | - | - |
| 1787819692 | 22.78° C | 82% | 1018.3 hPa | 0 mm | - | - | - |
| 1787817884 | 22.78° C | 82% | 1018.1 hPa | 0 mm | - | - | - |
| 1787816077 | 22.78° C | 82% | 1018.5 hPa | 0 mm | - | - | - |
| 1787814271 | 22.78° C | 83% | 1018.5 hPa | 0 mm | - | - | - |
| 1787812453 | 22.78° C | 81% | 1018.7 hPa | 0 mm | - | - | - |
| 1787810644 | 23.33° C | 81% | 1018.9 hPa | 0 mm | - | - | - |
| 1787808840 | 23.33° C | 81% | 1019 hPa | 0 mm | - | - | - |
| 1787807030 | 23.33° C | 81% | 1018.9 hPa | 0 mm | - | - | - |
| 1787805222 | 23.33° C | 82% | 1019 hPa | 0 mm | - | - | - |
| 1787803420 | 22.78° C | 82% | 1019 hPa | 0 mm | - | - | - |
| 1787801602 | 23.33° C | 79% | 1018.9 hPa | 0 mm | - | - | - |
| 1787799798 | 23.33° C | 77% | 1019 hPa | 0 mm | - | - | - |
* Rain latest hour (hover to see other rain measurements)
** Current wind speed in m/s (hover to see current wind gust speed)